Flag for Sweden Weather past 2 weeks in Norrköping, Sweden

Now
52 °F

Fog.


Feels Like: 52 °F
Forecast: 42 / 67 °F
Wind: No wind

Location: Norrkoping Airport

Current Time: Sep 19, 2014 at 8:42:32 AM

Latest Report: Sep 19, 2014 at 7:50 AM


Visibility: 0 mi

Pressure: 30.12 "Hg

Humidity: 100%

Dew point: 52 °F

Location of NorrköpingLocation

Historic Weather in Norrköping — Graph

°F

Norrköping temperature yesterday

Maximum temperature yesterday: 66 °F (at 1:50 PM)
Minimum temperature yesterday: 41 °F (at 12:50 AM)
Average temperature yesterday: 54 °F

Past Weeks' High & Low Weather Summary

 TemperatureHumidityPressure
High75 °F (Sep 4, 4:20 PM)100% (Sep 4, 7:20 AM)30.45 "Hg (Sep 4, 7:20 AM)
Low37 °F (Sep 17, 5:50 AM)44% (Sep 4, 4:20 PM)29.77 "Hg (Sep 9, 8:50 AM)
Average56 °F86%30.19 "Hg
* Reported Sep 4 7:20 AM — Sep 19 7:50 AM, Norrköping, Weather by CustomWeather, © 2014

Note: Actual official high and low records may vary slightly from our data, if they occured in-between our weather recording intervals... More about our weather records

Advertising

Norrköping weather history for previous 24 hours

 ConditionsComfort  
Time TempWeatherWind HumidityBarometerVisibility
7:50 AM
Sep 19
52 °FFog.No wind100%30.12 "Hg0 mi
7:20 AM50 °FFog.No wind100%30.12 "Hg0 mi
6:50 AM50 °FFog.No wind100%30.12 "Hg0 mi
6:20 AM50 °FFog.No wind100%30.12 "Hg0 mi
5:50 AM48 °FFog.No wind100%30.12 "Hg0 mi
5:20 AM48 °FFog.No wind100%30.12 "Hg0 mi
4:50 AM48 °FFog.No wind100%30.12 "Hg0 mi
4:20 AM46 °FFog.2 mph100%30.12 "Hg0 mi
3:50 AM46 °FFog.No wind100%30.15 "Hg0 mi
3:20 AM46 °FFog.No wind100%30.15 "Hg0 mi
2:50 AM45 °FFog.No wind100%30.15 "Hg0 mi
2:20 AM45 °FFog.No wind100%30.15 "Hg0 mi
1:50 AM45 °FFog.No wind100%30.15 "Hg0 mi
1:20 AM45 °FFog.1 mph100%30.15 "Hg0 mi
12:50 AM45 °FFog.No wind100%30.18 "Hg0 mi
12:20 AM46 °FFog.No wind100%30.18 "Hg0 mi
11:50 PM
Sep 18
46 °FFog.No wind100%30.18 "Hg0 mi
11:20 PM48 °FFog.No wind100%30.18 "Hg0 mi
10:50 PM50 °FFog.1 mph100%30.18 "Hg0 mi
10:20 PM52 °FLight fog.1 mph100%30.18 "Hg0 mi
9:50 PM54 °FFog.2 mph100%30.18 "Hg6 mi
9:20 PM54 °FFog.2 mph100%30.18 "Hg6 mi
8:50 PM54 °FFog.2 mph100%30.18 "Hg6 mi
8:20 PM55 °FClear.6 mph94%30.18 "Hg10 mi
7:50 PM57 °FSunny.6 mph94%30.18 "Hg10 mi
7:20 PM59 °FSunny.7 mph82%30.18 "Hg10 mi
6:50 PM61 °FSunny.6 mph83%30.18 "Hg10 mi
6:20 PM63 °FSunny.7 mph77%30.18 "Hg10 mi
5:50 PM64 °FSunny.9 mph68%30.18 "Hg10 mi
5:20 PM64 °FPassing clouds.8 mph68%30.18 "HgN/A
4:50 PM64 °FPassing clouds.9 mph68%30.18 "HgN/A
4:20 PM66 °FPassing clouds.9 mph64%30.18 "HgN/A
3:50 PM66 °FPassing clouds.9 mph60%30.18 "HgN/A
3:20 PM66 °FPassing clouds.8 mph60%30.18 "HgN/A
2:50 PM66 °FScattered clouds.9 mph60%30.18 "HgN/A
2:20 PM66 °FScattered clouds.7 mph64%30.21 "HgN/A
1:50 PM66 °FScattered clouds.8 mph64%30.21 "HgN/A
1:20 PM64 °FPassing clouds.6 mph68%30.21 "HgN/A
12:50 PM63 °FPassing clouds.5 mph73%30.21 "HgN/A
12:20 PM61 °FPassing clouds.3 mph88%30.24 "HgN/A
11:50 AM59 °FPassing clouds.1 mph100%30.24 "HgN/A
11:20 AM55 °FPartly sunny.2 mph100%30.24 "Hg6 mi
10:50 AM54 °FLow clouds.2 mph100%30.24 "Hg1 mi
10:20 AM54 °FFog.1 mph100%30.24 "Hg0 mi
9:50 AM52 °FFog.2 mph100%30.24 "Hg0 mi
9:20 AM50 °FFog.No wind100%30.24 "Hg0 mi
8:50 AM48 °FFog.No wind100%30.24 "Hg0 mi
8:20 AM48 °FFog.No wind100%30.24 "Hg0 mi
Weather by CustomWeather, © 2014

See weather overviewHow to use our weather pages